Year,Month,Day,Hour,Minute,Value (Times are PST for temperature in C)
2017,10,22,12,14,11.40
2017,10,22,12,15,11.40
2017,10,22,12,16,11.40
2017,10,22,12,17,11.40
2017,10,22,12,18,11.40
2017,10,22,12,19,11.40
2017,10,22,12,20,11.40
2017,10,22,12,21,11.50
2017,10,22,12,22,11.60
2017,10,22,12,23,11.60
2017,10,22,12,24,11.70
2017,10,22,12,25,11.80
2017,10,22,12,26,11.80
2017,10,22,12,27,11.90
2017,10,22,12,28,12.00
2017,10,22,12,29,12.00
2017,10,22,12,30,12.10
2017,10,22,12,31,12.20
2017,10,22,12,32,12.20
2017,10,22,12,33,12.30
2017,10,22,12,34,12.30
2017,10,22,12,35,12.50
2017,10,22,12,36,12.50
2017,10,22,12,37,12.60
2017,10,22,12,38,12.70
2017,10,22,12,39,12.70
2017,10,22,12,40,12.70
2017,10,22,12,41,12.80
2017,10,22,12,42,12.80
2017,10,22,12,43,12.80
2017,10,22,12,44,12.80
2017,10,22,12,45,12.80
2017,10,22,12,46,12.90
2017,10,22,12,47,12.90
2017,10,22,12,48,13.00
2017,10,22,12,49,13.00
2017,10,22,12,50,13.10
2017,10,22,12,51,13.10
2017,10,22,12,52,13.20
2017,10,22,12,53,13.20
2017,10,22,12,54,13.30
2017,10,22,12,55,13.30
2017,10,22,12,56,13.30
2017,10,22,12,57,13.30
2017,10,22,12,58,13.40
2017,10,22,12,59,13.40
2017,10,22,13,00,13.50
2017,10,22,13,01,13.60
2017,10,22,13,02,13.60
2017,10,22,13,03,13.70
2017,10,22,13,04,13.70
2017,10,22,13,05,13.80
2017,10,22,13,06,13.90
2017,10,22,13,07,14.00
2017,10,22,13,08,14.10
2017,10,22,13,09,14.20
2017,10,22,13,10,14.20
2017,10,22,13,11,14.20
2017,10,22,13,12,14.30
2017,10,22,13,13,14.40
2017,10,22,13,14,14.50
2017,10,22,13,15,14.50
2017,10,22,13,16,14.50
2017,10,22,13,17,14.50
2017,10,22,13,18,14.50
2017,10,22,13,19,14.40
2017,10,22,13,20,14.40
2017,10,22,13,21,14.40
2017,10,22,13,22,14.30
2017,10,22,13,23,14.30
2017,10,22,13,24,14.40
2017,10,22,13,25,14.40
2017,10,22,13,26,14.30
2017,10,22,13,27,14.20
2017,10,22,13,28,14.10
2017,10,22,13,29,14.00
2017,10,22,13,30,13.90
2017,10,22,13,31,13.80
2017,10,22,13,32,13.70
2017,10,22,13,33,13.70
2017,10,22,13,34,13.60
2017,10,22,13,35,13.60
2017,10,22,13,36,13.50
2017,10,22,13,37,13.40
2017,10,22,13,38,13.20
2017,10,22,13,39,13.00
2017,10,22,13,40,12.90
2017,10,22,13,41,12.70
2017,10,22,13,42,12.50
2017,10,22,13,43,12.40
2017,10,22,13,44,12.20
2017,10,22,13,45,12.10
2017,10,22,13,46,12.00
2017,10,22,13,47,11.90
2017,10,22,13,48,11.90
2017,10,22,13,49,11.80
2017,10,22,13,50,11.80
2017,10,22,13,51,11.80
2017,10,22,13,52,11.80
2017,10,22,13,53,11.80
2017,10,22,13,54,11.80
2017,10,22,13,55,11.80
2017,10,22,13,56,11.80
2017,10,22,13,57,11.80
2017,10,22,13,58,11.90
2017,10,22,13,59,12.00
2017,10,22,14,00,12.00
2017,10,22,14,01,12.00
2017,10,22,14,02,12.10
2017,10,22,14,03,12.10
2017,10,22,14,04,12.20
2017,10,22,14,05,12.20
2017,10,22,14,06,12.20
2017,10,22,14,07,12.20
2017,10,22,14,08,12.30
2017,10,22,14,09,12.30
2017,10,22,14,10,12.40
2017,10,22,14,11,12.50
2017,10,22,14,12,12.50
2017,10,22,14,13,12.60
2017,10,22,14,14,12.70
2017,10,22,14,15,12.80
2017,10,22,14,16,12.80
2017,10,22,14,17,12.90
2017,10,22,14,18,13.00
2017,10,22,14,19,13.10
2017,10,22,14,20,13.20
2017,10,22,14,21,13.20
2017,10,22,14,22,13.30
2017,10,22,14,23,13.30
2017,10,22,14,24,13.30
2017,10,22,14,25,13.30
2017,10,22,14,26,13.40
2017,10,22,14,27,13.40
2017,10,22,14,28,13.40
2017,10,22,14,29,13.40
2017,10,22,14,30,13.40
2017,10,22,14,31,13.40
2017,10,22,14,32,13.40
2017,10,22,14,33,13.40
2017,10,22,14,34,13.40
2017,10,22,14,35,13.40
2017,10,22,14,36,13.40
2017,10,22,14,37,13.40
2017,10,22,14,38,13.40
2017,10,22,14,39,13.40
2017,10,22,14,40,13.40
2017,10,22,14,41,13.40
2017,10,22,14,42,13.50
2017,10,22,14,43,13.50
2017,10,22,14,44,13.50
2017,10,22,14,45,13.50
2017,10,22,14,46,13.60
2017,10,22,14,47,13.60
2017,10,22,14,48,13.60
2017,10,22,14,49,13.60
2017,10,22,14,50,13.70
2017,10,22,14,51,13.70
2017,10,22,14,52,13.80
2017,10,22,14,53,13.80
2017,10,22,14,54,13.90
2017,10,22,14,55,13.90
2017,10,22,14,56,14.00
2017,10,22,14,57,14.00
2017,10,22,14,58,14.00
2017,10,22,14,59,14.10
2017,10,22,15,00,14.10
2017,10,22,15,01,14.10
2017,10,22,15,02,14.20
2017,10,22,15,03,14.20
2017,10,22,15,04,14.20
2017,10,22,15,05,14.20
2017,10,22,15,06,14.20
2017,10,22,15,07,14.20
2017,10,22,15,08,14.20
2017,10,22,15,09,14.30
2017,10,22,15,10,14.40
2017,10,22,15,11,14.40
2017,10,22,15,12,14.50
2017,10,22,15,13,14.50
2017,10,22,15,14,14.60
2017,10,22,15,15,14.60
2017,10,22,15,16,14.60
2017,10,22,15,17,14.70
2017,10,22,15,18,14.70
2017,10,22,15,19,14.80
2017,10,22,15,20,14.80
2017,10,22,15,21,14.80
2017,10,22,15,22,14.80
2017,10,22,15,23,14.90
2017,10,22,15,24,14.90
2017,10,22,15,25,15.00
2017,10,22,15,26,15.00
2017,10,22,15,27,15.00
2017,10,22,15,28,15.10
2017,10,22,15,29,15.10
2017,10,22,15,30,15.10
2017,10,22,15,31,15.10
2017,10,22,15,32,15.10
2017,10,22,15,33,15.10
2017,10,22,15,34,15.10
2017,10,22,15,35,15.10
2017,10,22,15,36,15.10
2017,10,22,15,37,15.10
2017,10,22,15,38,15.00
2017,10,22,15,39,15.00
2017,10,22,15,40,15.00
2017,10,22,15,41,15.00
2017,10,22,15,42,15.00
2017,10,22,15,43,15.00
2017,10,22,15,44,15.00
2017,10,22,15,45,15.00
2017,10,22,15,46,15.00
2017,10,22,15,47,15.00
2017,10,22,15,48,15.00
2017,10,22,15,49,15.00
2017,10,22,15,50,15.00
2017,10,22,15,51,15.00
2017,10,22,15,52,14.90
2017,10,22,15,53,14.90
2017,10,22,15,54,14.80
2017,10,22,15,55,14.70
2017,10,22,15,56,14.60
2017,10,22,15,57,14.50
2017,10,22,15,58,14.50
2017,10,22,15,59,14.40
2017,10,22,16,00,14.30
2017,10,22,16,01,14.20
2017,10,22,16,02,14.10
2017,10,22,16,03,14.00
2017,10,22,16,04,13.90
2017,10,22,16,05,13.90
2017,10,22,16,06,13.80
2017,10,22,16,07,13.70
2017,10,22,16,08,13.70
2017,10,22,16,09,13.60
2017,10,22,16,10,13.60
2017,10,22,16,11,13.50
2017,10,22,16,12,13.40
2017,10,22,16,13,13.30
2017,10,22,16,14,13.30
2017,10,22,16,15,13.30
2017,10,22,16,16,13.30
2017,10,22,16,17,13.20
2017,10,22,16,18,13.20
2017,10,22,16,19,13.20
2017,10,22,16,20,13.20
2017,10,22,16,21,13.20
2017,10,22,16,22,13.20
2017,10,22,16,23,13.20
2017,10,22,16,24,13.20
2017,10,22,16,25,13.20
2017,10,22,16,26,13.20
2017,10,22,16,27,13.20
2017,10,22,16,28,13.20
2017,10,22,16,29,13.20
2017,10,22,16,30,13.20
2017,10,22,16,31,13.20
2017,10,22,16,32,13.20
2017,10,22,16,33,13.20
2017,10,22,16,34,13.20
2017,10,22,16,35,13.20
2017,10,22,16,36,13.20
2017,10,22,16,37,13.20
2017,10,22,16,38,13.20
2017,10,22,16,39,13.20
2017,10,22,16,40,13.20
2017,10,22,16,41,13.20
2017,10,22,16,42,13.20
2017,10,22,16,43,13.20
2017,10,22,16,44,13.20
2017,10,22,16,45,13.20
2017,10,22,16,46,13.20
2017,10,22,16,47,13.20
2017,10,22,16,48,13.20
2017,10,22,16,49,13.10
2017,10,22,16,50,13.10
2017,10,22,16,51,13.10
2017,10,22,16,52,13.10
2017,10,22,16,53,13.10
2017,10,22,16,54,13.10
2017,10,22,16,55,13.00
2017,10,22,16,56,13.00
2017,10,22,16,57,13.00
2017,10,22,16,58,12.90
2017,10,22,16,59,12.80
2017,10,22,17,00,12.70
2017,10,22,17,01,12.50
2017,10,22,17,02,12.40
2017,10,22,17,03,12.20
2017,10,22,17,04,12.10
2017,10,22,17,05,12.10
2017,10,22,17,06,12.00
2017,10,22,17,07,11.90
2017,10,22,17,08,11.90
2017,10,22,17,09,11.80
2017,10,22,17,10,11.80
2017,10,22,17,11,11.80
2017,10,22,17,12,11.70
2017,10,22,17,13,11.70
2017,10,22,17,14,11.70
2017,10,22,17,15,11.70
2017,10,22,17,16,11.70
2017,10,22,17,17,11.70
2017,10,22,17,18,11.70
2017,10,22,17,19,11.70
2017,10,22,17,20,11.80
2017,10,22,17,21,11.80
2017,10,22,17,22,11.80
2017,10,22,17,23,11.80
2017,10,22,17,24,11.80
2017,10,22,17,25,11.80
2017,10,22,17,26,11.80
2017,10,22,17,27,11.80
2017,10,22,17,28,11.80
2017,10,22,17,29,11.80
2017,10,22,17,30,11.70
2017,10,22,17,31,11.70
2017,10,22,17,32,11.70
2017,10,22,17,33,11.70
2017,10,22,17,34,11.60
2017,10,22,17,35,11.60
2017,10,22,17,36,11.60
2017,10,22,17,37,11.60
2017,10,22,17,38,11.60
2017,10,22,17,39,11.60
2017,10,22,17,40,11.60
2017,10,22,17,41,11.60
2017,10,22,17,42,11.60
2017,10,22,17,43,11.60
2017,10,22,17,44,11.60
2017,10,22,17,45,11.60
2017,10,22,17,46,11.60
2017,10,22,17,47,11.60
2017,10,22,17,48,11.60
2017,10,22,17,49,11.70
2017,10,22,17,50,11.70
2017,10,22,17,51,11.70
2017,10,22,17,52,11.80
2017,10,22,17,53,11.80
2017,10,22,17,54,11.80
2017,10,22,17,55,11.80
2017,10,22,17,56,11.80
2017,10,22,17,57,11.90
2017,10,22,17,58,11.90
2017,10,22,17,59,11.90
2017,10,22,18,00,12.00
2017,10,22,18,01,12.00
2017,10,22,18,02,12.00
2017,10,22,18,03,12.00
2017,10,22,18,04,12.00
2017,10,22,18,05,12.00
2017,10,22,18,06,12.00
2017,10,22,18,07,12.00
2017,10,22,18,08,12.00
2017,10,22,18,09,12.00
2017,10,22,18,10,12.00
2017,10,22,18,11,12.00
2017,10,22,18,12,12.00
2017,10,22,18,13,12.00
2017,10,22,18,14,12.00
2017,10,22,18,15,12.00
